Content
SEND FEEDBACK

Daily
Averages
Monthly
Summary
France

CAEN, FRANCE


Home > Europe > France
Elevation: 220 feet     Latitude: 49 11N     Longitude: 000 27W

WEATHER
 
SELECT A DAY
Number of Records: 227,051;   Date Range: 7/1/96 - 12/17/14
 
SHARE

PRINT THIS DATA

[ ← Previous Day ]
WEATHER ALMANAC - OCTOBER 15, 2013
[ Next Day → ]
[ °C ]   °F
Weather ElementAverageHighLow
Temperature51 °F57.2 °F (1:30 pm)44.6 °F (5:00 am)
Dewpoint47.6 °F51.8 °F (12:00 pm)42.8 °F (5:00 am)
Humidity88 %100 % (7:00 am)71 % (2:00 pm)
Barometer29.87 in29.95 in (11:00 pm)29.83 in (3:30 pm)
Wind Speed5.3 mph11.5 mph (1:30 am)
Weather ElementAverage
Visibility6.5 mi
Wind DirectionSSE (144.1 °)

Weather ElementTotal
Precipitation---
Heating Degree Days14.1 (Base 65)
Growing Degree Days0.9 (Base 50)
Averaged from 51 records on October 15, 2013
WEATHER CONDITIONS BREAKOUT
WIND DIRECTION BREAKOUT
WEATHER BY HOUR - OCTOBER 15, 2013
[ °C ]   °F
Local TimeTemperatureDewpointHumidityBarometerVisibilityWind DirectionWind SpeedGust SpeedPrecipitationEventsConditions
12:30 AM48.2 °F46.4 °F93 %29.86 in6.2 miWSW (250°)10.4 mph
1:00 AM48.2 °F44.6 °F87 %29.86 in6.2 miWest (260°)10.4 mph
1:30 AM48.2 °F44.6 °F87 %29.86 in6.2 miWSW (240°)11.5 mph
2:00 AM49.0 °F45.0 °F83 %29.88 in17.0 miWSW (250°)10.4 mphClear
2:00 AM48.2 °F44.6 °F87 %29.86 in6.2 miWSW (250°)10.4 mph
2:30 AM48.2 °F44.6 °F87 %29.86 in6.2 miWest (260°)9.2 mph
3:00 AM48.2 °F44.6 °F87 %29.89 in6.2 miWSW (250°)9.2 mph
3:30 AM48.2 °F44.6 °F87 %29.86 in6.2 miWSW (250°)11.5 mph
4:00 AM46.4 °F44.6 °F93 %29.86 in6.2 miWSW (240°)8.1 mph
4:30 AM46.4 °F44.6 °F93 %29.86 in6.2 miWest (260°)9.2 mph
5:00 AM44.6 °F42.8 °F93 %29.86 in6.2 miSW (230°)9.2 mph
5:30 AM44.6 °F42.8 °F93 %29.86 in6.2 miSW (230°)9.2 mph
6:00 AM46.4 °F44.6 °F93 %29.86 in6.2 miWSW (240°)9.2 mph
6:30 AM46.4 °F44.6 °F93 %29.86 in6.2 miWSW (240°)9.2 mph
7:00 AM44.6 °F44.6 °F100 %29.86 in6.2 miSW (230°)10.4 mph
7:30 AM44.6 °F44.6 °F100 %29.86 in5.0 miSW (230°)8.1 mph
8:00 AM45.0 °F44.0 °F96 %29.87 in12.0 miSW (230°)6.9 mphScattered Clouds
8:00 AM44.6 °F44.6 °F100 %29.86 in4.3 miSW (230°)6.9 mph
8:30 AM46.4 °F44.6 °F93 %29.86 in3.1 miVariable3.5 mphMist
9:00 AM46.4 °F46.4 °F100 %29.86 in1.4 miSW (220°)4.6 mphRainLight Rain
9:30 AM48.2 °F48.2 °F100 %29.86 inSW (220°)3.5 mphMist
10:00 AM50.0 °F50.0 °F100 %29.86 in3.1 miSW (220°)5.8 mphMist
10:30 AM51.8 °F50.0 °F94 %29.86 in5.6 miSSW (200°)5.8 mph
11:00 AM53.6 °F50.0 °F88 %29.86 in6.2 miSSW (200°)4.6 mphOvercast
11:30 AM53.6 °F50.0 °F88 %29.86 in6.2 miSW (220°)6.9 mphOvercast
12:00 PM55.4 °F51.8 °F88 %29.86 in6.2 miSSW (210°)5.8 mphScattered Clouds
12:30 PM55.4 °F51.8 °F88 %29.86 in6.2 miSW (220°)5.8 mphMostly Cloudy
1:00 PM55.4 °F50.0 °F82 %29.86 in6.2 miSSW (210°)3.5 mphMostly Cloudy
1:30 PM57.2 °F50.0 °F77 %29.86 in6.2 miSouth (190°)3.5 mphOvercast
2:00 PM57.0 °F50.0 °F71 %29.86 in19.0 miSSE (150°)2.3 mphOvercast
2:00 PM57.2 °F50.0 °F77 %29.86 in6.2 miVariable2.3 mphOvercast
2:30 PM57.2 °F51.8 °F82 %29.86 in6.2 miVariable3.5 mph
3:00 PM55.4 °F51.8 °F88 %29.86 in6.2 miSSE (150°)2.3 mphOvercast
3:30 PM55.4 °F51.8 °F88 %29.83 in6.2 miVariable2.3 mph
4:00 PM57.2 °F51.8 °F82 %29.83 in6.2 miVariable2.3 mph
4:30 PM57.2 °F51.8 °F82 %29.83 in6.2 miVariable2.3 mphMostly Cloudy
5:00 PM57.2 °F50.0 °F77 %29.83 in6.2 miVariable3.5 mphOvercast
5:30 PM57.2 °F50.0 °F77 %29.83 in6.2 miNNE (20°)3.5 mphMostly Cloudy
6:00 PM57.2 °F50.0 °F77 %29.83 in6.2 miNE (40°)4.6 mph
6:30 PM57.2 °F50.0 °F77 %29.86 in6.2 miNE (40°)4.6 mphMostly Cloudy
7:00 PM55.4 °F48.2 °F77 %29.86 in6.2 miNE (40°)3.5 mph
7:30 PM53.6 °F48.2 °F82 %29.86 in6.2 miVariable2.3 mphMostly Cloudy
8:00 PM53.0 °F48.0 °F78 %29.90 in11.0 miNE (40°)2.3 mphClear
8:00 PM53.6 °F48.2 °F82 %29.89 in6.2 miNE (40°)2.3 mphOvercast
8:30 PM53.6 °F48.2 °F82 %29.89 in6.2 miNE (50°)1.2 mphMostly Cloudy
9:00 PM51.8 °F48.2 °F88 %29.89 in6.2 miCalm
9:30 PM48.2 °F46.4 °F93 %29.92 in6.2 miVariable1.2 mphMostly Cloudy
10:00 PM48.2 °F46.4 °F93 %29.92 in6.2 miCalmOvercast
10:30 PM48.2 °F48.2 °F100 %29.92 in6.2 miWNW (300°)1.2 mphOvercast
11:00 PM48.2 °F46.4 °F93 %29.95 in5.0 miCalmPartly Cloudy
11:30 PM48.2 °F46.4 °F93 %29.95 in5.0 miCalm
Hourly data recorded from LFRK, located miles away from Caen, France







STORIES FROM OUR PARTNERS